User: anonymous   Login
Location: Pella
(41.4080°N, 92.9160°W)
Time: 15:48:36
(UTC-06:00)
Language:

Iridium 91 - Orbit

View from above orbital plane
View from above orbital plane
View from above satellite
View from above satellite

Ground track
Ground track

The orbit data is extracted from the following two-line orbital elements,

1 27372U 02005A   16338.55580788  .00000110  00000-0  32315-4 0  9995
2 27372  86.3976   9.6203 0002264  98.0452  55.4325 14.34222311783582
Epoch (UTC): 03 December 2016 13:20:21
Eccentricity: 0.0002264
inclination: 86.3976°
perigee height: 776 km
apogee height: 779 km
right ascension of ascending node: 9.6203°
argument of perigee: 98.0452°
revolutions per day: 14.34222311
mean anomaly at epoch: 55.4325°
orbit number at epoch: 78358

The dashed part of the orbit path shows where the satellite is in the earth's shadow,  

DLR